Content
SEND FEEDBACK

Daily
Averages
Monthly
Summary
United States of America

MAURICEVILLE, TEXAS


Home > North America > United States > Texas
Elevation: 20 feet     Latitude: 30 14N     Longitude: 093 44W

WEATHER
 
SELECT A DAY
Number of Records: 109,680;   Date Range: 8/25/05 - 9/1/14
 
SHARE

PRINT THIS DATA

[ ← Previous Day ]
WEATHER ALMANAC - JULY 3, 2013
[ Next Day → ]
[ °C ]   °F
Weather ElementAverageHighLow
Temperature79.8 °F90.5 °F (3:35 pm)67.3 °F (6:35 am)
Dewpoint62.7 °F66.7 °F (10:55 am)55.6 °F (6:35 pm)
Humidity59.4 %90 % (5:55 am)32 % (4:55 pm)
Barometer30.00 in30.05 in (9:55 am)29.94 in (5:15 pm)
Wind Speed4.3 mph10.4 mph (1:15 pm)
Weather ElementAverage
Visibility10 mi
Wind DirectionESE (117 °)

Weather ElementTotal
Precipitation---
Cooling Degree Days13.9 (Base 65)
Growing Degree Days28.9 (Base 50)
Averaged from 70 records on July 3, 2013
WEATHER CONDITIONS BREAKOUT
WIND DIRECTION BREAKOUT
WEATHER BY HOUR - JULY 3, 2013
[ °C ]   °F
Local TimeTemperatureDewpointHumidityBarometerVisibilityWind DirectionWind SpeedGust SpeedPrecipitationEventsConditions
12:35 AM75.4 °F64.4 °F69 %30.02 in10.0 miSSE (150°)5.8 mphClear
12:55 AM73.0 °F65.7 °F78 %30.02 in10.0 miEast (100°)4.6 mphClear
1:15 AM72.3 °F65.7 °F79 %30.02 in10.0 miEast (100°)3.5 mphClear
1:55 AM72.1 °F64.6 °F77 %30.02 in10.0 miCalmMostly Cloudy
2:15 AM72.1 °F64.4 °F77 %30.02 in10.0 miESE (110°)3.5 mphScattered Clouds
2:35 AM72.5 °F64.6 °F76 %30.01 in10.0 miCalmClear
2:55 AM72.1 °F65.1 °F78 %30.01 in10.0 miCalmMostly Cloudy
3:15 AM72.3 °F64.9 °F78 %30.01 in10.0 miCalmOvercast
3:35 AM71.6 °F65.3 °F80 %30.01 in10.0 miCalmScattered Clouds
3:55 AM70.9 °F64.9 °F81 %30.00 in10.0 miEast (100°)3.5 mphMostly Cloudy
4:15 AM70.0 °F64.6 °F83 %30.00 in10.0 miEast (100°)3.5 mphScattered Clouds
4:35 AM70.2 °F64.6 °F82 %30.00 in10.0 miCalmClear
4:55 AM69.4 °F64.6 °F84 %30.00 in10.0 miCalmClear
5:15 AM68.9 °F64.4 °F86 %30.01 in10.0 miCalmClear
5:35 AM68.4 °F64.4 °F87 %30.01 in10.0 miCalmClear
5:55 AM67.5 °F64.4 °F90 %30.01 in10.0 miCalmClear
6:15 AM67.6 °F64.2 °F89 %30.01 in10.0 miCalmClear
6:35 AM67.3 °F64.0 °F89 %30.01 in10.0 miCalmClear
6:55 AM67.3 °F64.4 °F90 %30.02 in10.0 miCalmClear
7:15 AM68.4 °F64.8 °F88 %30.02 in10.0 miCalmClear
7:35 AM69.6 °F65.3 °F86 %30.02 in10.0 miCalmClear
7:55 AM71.1 °F65.8 °F84 %30.03 in10.0 miEast (100°)3.5 mphClear
8:15 AM72.7 °F65.8 °F79 %30.03 in10.0 miEast (100°)3.5 mphClear
8:35 AM74.1 °F66.2 °F76 %30.04 in10.0 miCalmClear
8:55 AM76.3 °F66.4 °F71 %30.04 in10.0 miCalmClear
9:15 AM78.3 °F66.0 °F66 %30.04 in10.0 miSE (140°)4.6 mphClear
9:35 AM81.0 °F65.7 °F60 %30.04 in10.0 miSSE (150°)3.5 mphClear
9:55 AM82.8 °F66.0 °F57 %30.05 in10.0 miSouth (180°)6.9 mphClear
10:15 AM83.3 °F65.8 °F55 %30.04 in10.0 miSSE (150°)5.8 mphClear
10:35 AM84.0 °F66.2 °F55 %30.05 in10.0 miSouth (170°)8.1 mphClear
10:55 AM84.6 °F66.7 °F55 %30.04 in10.0 miSouth (170°)9.2 mphClear
11:15 AM85.5 °F66.7 °F53 %30.04 in10.0 miSSW (200°)6.9 mphClear
11:35 AM86.4 °F64.9 °F49 %30.04 in10.0 miSouth (170°)4.6 mphClear
11:55 AM87.1 °F61.9 °F43 %30.03 in10.0 miSSE (150°)6.9 mphClear
12:15 PM87.8 °F61.9 °F42 %30.03 in10.0 miSSE (160°)6.9 mphClear
12:35 PM87.6 °F60.1 °F39 %30.03 in10.0 miSSW (200°)5.8 mphScattered Clouds
12:55 PM88.3 °F61.0 °F40 %30.03 in10.0 miSSE (150°)9.2 mphScattered Clouds
1:15 PM88.3 °F59.9 °F38 %30.02 in10.0 miSouth (180°)10.4 mphScattered Clouds
1:35 PM88.9 °F59.5 °F37 %30.01 in10.0 miSouth (170°)4.6 mphScattered Clouds
1:55 PM89.6 °F59.9 °F37 %30.00 in10.0 miSW (220°)6.9 mphScattered Clouds
2:15 PM89.6 °F58.5 °F35 %30.00 in10.0 miSE (140°)8.1 mphClear
2:35 PM90.1 °F60.1 °F36 %29.99 in10.0 miSSW (210°)8.1 mphScattered Clouds
2:55 PM90.3 °F59.0 °F35 %29.99 in10.0 miSSW (200°)10.4 mphScattered Clouds
3:15 PM90.1 °F58.6 °F34 %29.98 in10.0 miSSE (160°)6.9 mphScattered Clouds
3:35 PM90.5 °F60.3 °F36 %29.98 in10.0 miSouth (180°)9.2 mphClear
3:55 PM90.5 °F58.6 °F34 %29.97 in10.0 miSouth (180°)6.9 mphScattered Clouds
4:15 PM90.0 °F58.8 °F35 %29.96 in10.0 miSE (140°)6.9 mphScattered Clouds
4:35 PM90.1 °F57.7 °F33 %29.96 in10.0 miSSW (210°)6.9 mphScattered Clouds
4:55 PM90.1 °F56.8 °F32 %29.95 in10.0 miSSE (160°)6.9 mphClear
5:15 PM89.6 °F57.4 °F34 %29.94 in10.0 miSSE (160°)6.9 mphClear
5:35 PM89.8 °F56.5 °F32 %29.94 in10.0 miSSW (200°)5.8 mphClear
5:55 PM89.2 °F57.7 °F34 %29.94 in10.0 miSouth (180°)9.2 mphClear
6:15 PM88.9 °F58.5 °F36 %29.94 in10.0 miSSE (150°)8.1 mphClear
6:35 PM88.3 °F55.6 °F33 %29.94 in10.0 miSouth (190°)5.8 mphClear
6:55 PM87.4 °F57.9 °F37 %29.94 in10.0 miSSE (160°)5.8 mphClear
7:15 PM86.0 °F60.6 °F42 %29.94 in10.0 miSSE (150°)4.6 mphClear
7:35 PM84.7 °F60.3 °F43 %29.94 in10.0 miSSE (160°)5.8 mphClear
7:55 PM83.7 °F60.1 °F45 %29.95 in10.0 miSSE (150°)3.5 mphClear
8:15 PM81.5 °F61.2 °F50 %29.94 in10.0 miSSE (160°)4.6 mphClear
8:35 PM81.5 °F61.3 °F50 %29.94 in10.0 miSSE (150°)3.5 mphClear
8:55 PM79.9 °F61.9 °F54 %29.95 in10.0 miSSE (160°)4.6 mphClear
9:15 PM78.1 °F63.3 °F60 %29.95 in10.0 miSouth (170°)3.5 mphClear
9:35 PM77.5 °F63.3 °F61 %29.97 in10.0 miCalmClear
9:55 PM75.4 °F64.0 °F68 %29.97 in10.0 miCalmClear
10:15 PM75.0 °F64.8 °F70 %29.97 in10.0 miSouth (170°)3.5 mphClear
10:35 PM76.5 °F64.4 °F66 %29.98 in10.0 miSSE (160°)4.6 mphClear
10:55 PM76.3 °F64.2 °F66 %29.97 in10.0 miSouth (170°)4.6 mphClear
11:15 PM75.2 °F64.0 °F68 %29.98 in10.0 miSouth (180°)3.5 mphClear
11:35 PM75.6 °F63.9 °F67 %29.98 in10.0 miSouth (180°)3.5 mphClear
11:55 PM75.6 °F63.9 °F67 %29.98 in10.0 miSouth (190°)4.6 mphClear
Hourly data recorded from KORG, located miles away from Mauriceville, Texas







STORIES FROM OUR PARTNERS